Tracking 35274 objects as of 10-Sep-2026
HD Live streaming from Space Station
objects crossing your sky now

QIANFAN-105

Track QIANFAN-105 now!
10-day predictions
QIANFAN-105 is classified as:


NORAD ID: 66047
Int'l Code: 2025-233Q
Launch date: October 17, 2025
Source: People's Republic of China (PRC)
Launch site: Taiyaun Space Center, China (TSC)
Your satellite tracking list
Your tracking list is empty




NASA's NSSDC Master Catalog

Two Line Element Set (TLE):
1 66047U 25233Q   26251.81130330  .00000070  00000-0  89672-4 0  9996
2 66047  89.0059  34.5028 0001826  90.4837 269.6523 13.51025235 44633
Source of the keplerian elements: AFSPC